Regional Weather Roundup
Issued by NWS

Home | Current Version | Previous Version | Text Only | Print | Product List | Glossary Off
Versions: 1 2 3 4 5 6 7 8 9 10 11 12 13 14 15 16 17 18 19 20 21 22 23 24 25 26 27 28 29 30 31 32 33 34 35 36 37 38 39 40 41 42 43 44 45 46 47 48 49 50

256
ASUS44 KJAN 301303
RWRMS

MISSISSIPPI HOURLY WEATHER ROUNDUP
NATIONAL WEATHER SERVICE JACKSON MS
800 AM CDT MON MAR 30 2015

NOTE: "FAIR: INDICATES FEW OR NO CLOUDS BELOW 12,000 FEET WITH NO
SIGNIFICANT WEATHER AND/OR OBSTRUCTIONS TO VISIBILITY.

MSZ001>002-007>008-010>013-018>021-025>028-034>036-301400-
NORTHWEST MISSISSIPPI

CITY           SKY/WX    TMP DP  RH WIND       PRES   REMARKS
CLARKSDALE       N/A     55  54  94 CALM      30.23R
CLEVELAND      FAIR      58  55  89 N9        30.22R
GREENWOOD      PTSUNNY   63  54  72 N5        30.20R
GREENVILLE     SUNNY     60  54  80 N3        30.21R
OXFORD         FAIR      52  50  93 CALM      30.22R FOG
TUNICA         SUNNY     50  46  87 N7        30.23R
$$

MSZ003>006-009-014>017-022>024-029>033-037>039-301400-
NORTHEAST MISSISSIPPI

CITY           SKY/WX    TMP DP  RH WIND       PRES   REMARKS
COLUMBUS AFB   MOSUNNY   60  58  94 NW7       30.18R
CORINTH        FAIR      54  50  87 NW3       30.19R
GOLDN TRIANGLE PTSUNNY   61  55  82 NW7       30.18R
STARKVILLE     CLOUDY    61  59  94 CALM      30.19R
TUPELO         SUNNY     57  52  83 N8        30.20R
$$

MSZ040-058-301400-
CENTRAL MISSISSIPPI

CITY           SKY/WX    TMP DP  RH WIND       PRES   REMARKS
JACKSON INTL   PTSUNNY   64  60  87 SW7       30.22R
JACKSON HAWKNS CLOUDY    64  60  87 W5        30.22R
MERIDIAN KEY   RAIN      61  60  97 SW8       30.21R FOG
MERIDIAN NAS   NOT AVBL
RAYMOND        PTSUNNY   64  59  82 SW6       30.21S
VICKSBURG      CLOUDY    64  60  87 SW5       30.22R
$$

MSZ059>079-301400-
SOUTH MISSISSIPPI

CITY           SKY/WX    TMP DP  RH WIND       PRES   REMARKS
BROOKHAVEN     CLOUDY    64  64 100 W6        30.25R
HATTIESBURG    SUNNY     61  60  97 CALM      30.24R
MCCOMB         SUNNY     60  59  96 W3        30.23R FOG
NATCHEZ        PTSUNNY   61  59  94 SW5       30.23R
PINE BELT      SUNNY     61  57  88 SW5       30.24R
$$

MSZ080>082-301400-
COASTAL MISSISSIPPI

CITY           SKY/WX    TMP DP  RH WIND       PRES   REMARKS
BAY ST LOUIS   MOSUNNY   59  55  88 CALM      30.25R FOG
BILOXI         MOSUNNY   66  66 100 SW5       30.24R
PASCAGOULA     MOSUNNY   66  64  93 SW3       30.24R
GULFPORT       MOSUNNY   65  62  90 CALM      30.24R
$$



USA.gov is the U.S. government's official web portal to all federal, state and local government web resources and services.